GW5240 Weather Reports


time (UTC)temp
F
wind
direction
speed
knots
gust
knots
rain 1hr
in
rain 24hr
in
rain mn
in
humidity
%
barometer
mb
20260901160943 85 144 1.7 2.6 0.00 0.00 0.00 50 1014.9
20260901160439 85 193 1.7 1.7 0.00 0.00 0.00 50 1014.7
20260901155938 84 186 0.9 1.7 0.00 0.00 0.00 52 1014.5
20260901155432 83 182 1.7 1.7 0.00 0.00 0.00 57 1014.8
20260901154929 83 189 0.0 1.7 0.00 0.00 0.00 54 1014.8
20260901154428 83 206 0.0 1.7 0.00 0.00 0.00 61 1014.9
20260901153923 82 151 0.0 0.0 0.00 0.00 0.00 58 1014.6
20260901153418 82 128 0.9 1.7 0.00 0.00 0.00 59 1014.7
20260901152918 81 24 2.6 2.6 0.00 0.00 0.00 59 1014.7
20260901152412 81 152 1.7 1.7 0.00 0.00 0.00 61 1014.9
20260901151907 82 154 0.0 0.0 0.00 0.00 0.00 59 1014.9
20260901151406 81 151 0.0 1.7 0.00 0.00 0.00 61 1014.8
20260901150906 80 176 0.0 0.0 0.00 0.00 0.00 63 1014.8
20260901150404 80 147 0.0 0.0 0.00 0.00 0.00 64 1014.9
20260901145901 79 162 0.0 0.0 0.00 0.00 0.00 65 1015.2
20260901145356 78 166 0.0 0.0 0.00 0.00 0.00 66 1015.1
20260901144851 78 130 0.9 1.7 0.00 0.00 0.00 67 1015.1
20260901144347 77 161 2.6 2.6 0.00 0.00 0.00 69 1015.1
20260901143842 75 170 0.9 1.7 0.00 0.00 0.00 73 1015.1
20260901143338 75 169 0.9 1.7 0.00 0.00 0.00 73 1015.3
20260901142835 74 180 0.0 0.0 0.00 0.00 0.00 75 1015.2
20260901142333 74 160 0.0 0.0 0.00 0.00 0.00 77 1015.3
20260901141834 73 155 0.0 1.7 0.00 0.00 0.00 78 1015.4
20260901141329 72 156 1.7 2.6 0.00 0.00 0.00 80 1015.2
20260901140828 72 359 0.0 0.0 0.00 0.00 0.00 82 1015.2
20260901140326 71 170 0.0 0.0 0.00 0.00 0.00 86 1015.2
20260901135821 70 167 0.0 1.7 0.00 0.00 0.00 88 1015.3
20260901135316 69 157 0.9 1.7 0.00 0.00 0.00 92 1015.3
20260901134813 68 197 0.0 1.7 0.00 0.00 0.00 94 1015.3
20260901134312 68 164 0.0 0.0 0.00 0.00 0.00 96 1015.2
20260901133807 68 169 0.0 0.0 0.00 0.00 0.00 96 1015.3
20260901133306 67 169 0.0 0.0 0.00 0.00 0.00 97 1015.3
20260901132804 67 167 0.0 0.0 0.00 0.00 0.00 98 1015.4
20260901132300 67 170 0.0 0.0 0.00 0.00 0.00 98 1015.3
20260901131754 67 168 0.0 0.0 0.00 0.00 0.00 98 1015.3
20260901131254 67 163 0.0 0.0 0.00 0.00 0.00 98 1015.1
20260901130749 66 158 0.0 0.0 0.00 0.00 0.00 98 1015.1
20260901130248 66 165 0.0 0.0 0.00 0.00 0.00 98 1014.9
20260901125746 65 165 0.0 0.0 0.00 0.00 0.00 98 1015.1
20260901125241 65 165 0.0 0.0 0.00 0.00 0.00 98 1015.0
20260901124742 65 165 0.0 0.0 0.00 0.00 0.00 98 1015.1
20260901124236 65 165 0.0 0.0 0.00 0.00 0.00 98 1015.0
20260901123736 64 165 0.0 0.0 0.00 0.00 0.00 98 1015.2
20260901123231 64 165 0.0 0.0 0.00 0.00 0.00 98 1015.3
20260901122730 64 164 0.0 0.0 0.00 0.00 0.00 98 1015.2
20260901122225 64 163 0.0 0.0 0.00 0.00 0.00 98 1015.1
20260901121719 64 163 0.0 0.0 0.00 0.00 0.00 98 1015.0
20260901121214 63 163 0.0 0.0 0.00 0.00 0.00 98 1014.9
20260901120714 63 163 0.0 0.0 0.00 0.00 0.00 98 1014.8
20260901120209 63 163 0.0 0.0 0.00 0.00 0.00 98 1014.8
20260901115704 63 161 0.0 0.0 0.00 0.00 0.00 98 1014.7
20260901115200 63 160 0.0 0.0 0.00 0.00 0.00 98 1014.8
20260901114657 63 163 0.0 0.0 0.00 0.00 0.00 98 1014.7
20260901114156 63 163 0.0 0.0 0.00 0.00 0.00 98 1014.6
20260901113650 63 163 0.0 0.0 0.00 0.00 0.00 98 1014.6
20260901113145 63 163 0.0 0.0 0.00 0.00 0.00 98 1014.3
20260901112644 63 161 0.0 0.0 0.00 0.00 0.00 98 1014.4
20260901112138 63 170 0.0 0.0 0.00 0.00 0.00 98 1014.3
20260901111638 63 170 0.0 0.0 0.00 0.00 0.00 98 1014.3
20260901111132 63 170 0.0 0.0 0.00 0.00 0.00 98 1014.2
20260901110627 63 169 0.0 0.0 0.00 0.00 0.00 98 1014.1
20260901110122 63 169 0.0 0.0 0.00 0.00 0.00 97 1014.0
20260901105619 63 169 0.0 0.0 0.00 0.00 0.00 97 1014.2
20260901105118 63 169 0.0 0.0 0.00 0.00 0.00 97 1014.0
20260901104614 63 169 0.0 0.0 0.00 0.00 0.00 97 1014.0
20260901104108 63 167 0.0 0.0 0.00 0.00 0.00 97 1013.8
20260901103603 63 167 0.0 0.0 0.00 0.00 0.00 97 1013.8
20260901103058 63 167 0.0 0.0 0.00 0.00 0.00 97 1013.8
20260901102553 63 167 0.0 0.0 0.00 0.00 0.00 97 1013.8
20260901102048 63 167 0.0 0.0 0.00 0.00 0.00 97 1013.8
20260901101544 63 167 0.0 0.0 0.00 0.00 0.00 97 1013.8
20260901101042 63 167 0.0 0.0 0.00 0.00 0.00 97 1013.8
20260901100537 63 167 0.0 0.0 0.00 0.00 0.00 97 1013.8
20260901100037 63 167 0.0 0.0 0.00 0.00 0.00 97 1013.8
20260901095535 63 167 0.0 0.0 0.00 0.00 0.00 97 1013.8
20260901095033 63 167 0.0 0.0 0.00 0.00 0.00 97 1013.8
20260901094528 63 167 0.0 0.0 0.00 0.00 0.00 97 1013.7
20260901094027 63 167 0.0 0.0 0.00 0.00 0.00 97 1013.9
20260901093522 63 167 0.0 0.0 0.00 0.00 0.00 97 1013.7
20260901093017 64 167 0.0 0.0 0.00 0.00 0.00 97 1013.8
20260901092513 63 167 0.0 0.0 0.00 0.00 0.00 97 1013.9
20260901092009 64 167 0.0 0.0 0.00 0.00 0.00 97 1013.7
20260901091504 64 168 0.0 0.0 0.00 0.00 0.00 97 1013.7
20260901091003 64 168 0.0 0.0 0.00 0.00 0.00 97 1013.7
20260901090458 64 168 0.0 0.0 0.00 0.00 0.00 97 1013.6
20260901085953 64 168 0.0 0.0 0.00 0.00 0.00 97 1013.7
20260901085449 64 168 0.0 0.0 0.00 0.00 0.00 97 1013.7
20260901084945 64 168 0.0 0.0 0.00 0.00 0.00 96 1013.9
20260901084441 64 168 0.0 0.0 0.00 0.00 0.00 96 1013.8
20260901083937 64 168 0.0 0.0 0.00 0.00 0.00 97 1013.7
20260901083437 64 168 0.0 0.0 0.00 0.00 0.00 96 1013.5
20260901082935 64 168 0.0 0.0 0.00 0.00 0.00 96 1013.6
20260901082430 64 168 0.0 0.0 0.00 0.00 0.00 96 1013.5
20260901081925 64 168 0.0 0.0 0.00 0.00 0.00 96 1013.6
20260901081420 64 168 0.0 0.0 0.00 0.00 0.00 96 1013.7
20260901080915 65 168 0.0 0.0 0.00 0.00 0.00 96 1013.6
20260901080409 64 168 0.0 0.0 0.00 0.00 0.00 96 1013.8
20260901075903 64 168 0.0 0.0 0.00 0.00 0.00 96 1013.7
20260901075359 64 168 0.0 0.0 0.00 0.00 0.00 96 1013.8
20260901074853 65 168 0.0 0.0 0.00 0.00 0.00 96 1013.8
20260901074354 65 168 0.0 0.0 0.00 0.00 0.00 96 1014.0
20260901073849 65 168 0.0 0.0 0.00 0.00 0.00 96 1013.8
20260901073345 65 168 0.0 0.0 0.00 0.00 0.00 95 1013.8
20260901072840 65 168 0.0 0.0 0.00 0.00 0.00 95 1013.8
20260901072340 65 168 0.0 0.0 0.00 0.00 0.00 95 1013.9
20260901071835 66 168 0.0 0.0 0.00 0.00 0.00 95 1014.0
20260901071334 66 168 0.0 0.0 0.00 0.00 0.00 95 1014.0
20260901070833 66 168 0.0 0.0 0.00 0.00 0.00 95 1014.2
20260901070329 66 168 0.0 0.0 0.00 0.00 0.00 95 1013.9
20260901065827 66 168 0.0 0.0 0.00 0.00 0.00 95 1014.0
20260901065323 66 168 0.0 0.0 0.00 0.00 0.00 95 1014.1
20260901064819 66 168 0.0 0.0 0.00 0.00 0.00 95 1014.3
20260901064314 66 165 0.0 0.0 0.00 0.00 0.00 95 1014.3
20260901063812 66 165 0.0 0.0 0.00 0.00 0.00 94 1014.5
20260901063308 66 165 0.0 0.0 0.00 0.00 0.00 94 1014.3
20260901062804 66 165 0.0 0.0 0.00 0.00 0.00 94 1014.4
20260901062259 66 165 0.0 0.0 0.00 0.00 0.00 94 1014.3
20260901061755 67 165 0.0 0.0 0.00 0.00 0.00 94 1014.2
20260901061255 67 165 0.0 0.0 0.00 0.00 0.00 93 1014.2
20260901060750 67 165 0.0 0.0 0.00 0.00 0.00 93 1014.0
20260901060245 67 165 0.0 0.0 0.00 0.00 0.00 93 1014.1
20260901055741 67 165 0.0 0.0 0.00 0.00 0.00 92 1014.1
20260901055237 67 165 0.0 0.0 0.00 0.00 0.00 92 1013.9
20260901054734 67 165 0.0 0.0 0.00 0.00 0.00 92 1014.3
20260901054230 67 165 0.0 0.0 0.00 0.00 0.00 92 1014.0
20260901053726 68 165 0.0 0.0 0.00 0.00 0.00 91 1014.0
20260901053221 68 165 0.0 0.0 0.00 0.00 0.00 91 1013.9
20260901052722 68 165 0.0 0.0 0.00 0.00 0.00 90 1013.9
20260901052217 68 165 0.0 0.0 0.00 0.00 0.00 91 1013.8
20260901051716 68 165 0.0 0.0 0.00 0.00 0.00 90 1013.7
20260901051211 68 165 0.0 0.0 0.00 0.00 0.00 90 1013.8
20260901050707 68 165 0.0 0.0 0.00 0.00 0.00 90 1013.6
20260901050207 68 165 0.0 0.0 0.00 0.00 0.00 90 1013.7
20260901045701 68 165 0.0 0.0 0.00 0.00 0.00 89 1013.6
20260901045156 68 165 0.0 0.0 0.00 0.00 0.00 89 1013.5
20260901044652 69 165 0.0 0.0 0.00 0.00 0.00 89 1013.4
20260901044148 69 165 0.0 0.0 0.00 0.00 0.00 89 1013.3
20260901043643 69 165 0.0 0.0 0.00 0.00 0.00 89 1013.2
20260901043139 69 165 0.0 0.0 0.00 0.00 0.00 89 1013.2
20260901042638 69 165 0.0 0.0 0.00 0.00 0.00 89 1013.3
20260901042133 69 165 0.0 0.0 0.00 0.00 0.00 88 1013.3
20260901041629 69 165 0.0 0.0 0.00 0.00 0.00 87 1013.2
20260901041124 69 165 0.0 0.0 0.00 0.00 0.00 87 1013.4
20260901040624 69 165 0.0 0.0 0.00 0.00 0.00 86 1013.4
20260901040118 70 165 0.0 0.0 0.00 0.00 0.00 85 1013.3
20260901035616 70 165 0.0 0.0 0.00 0.00 0.00 85 1013.4
20260901035115 70 165 0.0 0.0 0.00 0.00 0.00 84 1013.5
20260901034614 70 165 0.0 0.0 0.00 0.00 0.00 84 1013.4
20260901034109 70 164 0.0 0.0 0.00 0.00 0.00 84 1013.5
20260901033608 71 164 0.0 0.0 0.00 0.00 0.00 83 1013.4
20260901033103 71 164 0.0 0.0 0.00 0.00 0.00 82 1013.5
20260901032601 72 164 0.0 0.0 0.00 0.00 0.00 81 1013.4
20260901032056 72 164 0.0 0.0 0.00 0.00 0.00 80 1013.4
20260901031552 72 164 0.0 0.0 0.00 0.00 0.00 80 1013.2
20260901031048 72 165 0.0 0.0 0.00 0.00 0.00 80 1013.2
20260901030548 72 165 0.0 0.0 0.00 0.00 0.00 80 1013.3
20260901030043 72 166 0.0 0.0 0.00 0.00 0.00 80 1013.4
20260901025542 73 166 0.0 0.0 0.00 0.00 0.00 79 1013.4
20260901025042 73 163 0.0 0.0 0.00 0.00 0.00 79 1013.2
20260901024537 73 168 0.0 0.0 0.00 0.00 0.00 78 1013.2
20260901024036 73 168 0.0 0.0 0.00 0.00 0.00 78 1013.1
20260901023535 73 168 0.0 0.0 0.00 0.00 0.00 77 1013.2
20260901023031 73 168 0.0 0.0 0.00 0.00 0.00 76 1012.9
20260901022526 74 168 0.0 0.0 0.00 0.00 0.00 76 1013.1
20260901022026 74 169 0.0 0.0 0.00 0.00 0.00 75 1012.8
20260901021522 74 169 0.0 0.0 0.00 0.00 0.00 75 1012.7
20260901021017 74 170 0.0 0.0 0.00 0.00 0.00 74 1012.9
20260901020513 75 170 0.0 0.0 0.00 0.00 0.00 73 1012.9
20260901020008 75 171 0.0 0.0 0.00 0.00 0.00 72 1012.8
20260901015503 76 167 0.0 0.0 0.00 0.00 0.00 70 1012.8
20260901015002 77 167 0.0 0.0 0.00 0.00 0.00 69 1012.7
20260901014458 77 167 0.0 0.0 0.00 0.00 0.00 68 1012.7
20260901013954 78 171 0.0 0.0 0.00 0.00 0.00 67 1012.6
20260901013450 78 165 0.0 0.0 0.00 0.00 0.00 67 1012.6
20260901012945 78 181 0.0 1.7 0.00 0.00 0.00 66 1012.4
20260901012439 78 171 0.0 0.0 0.00 0.00 0.00 65 1012.3
20260901011934 78 173 0.0 0.0 0.00 0.00 0.00 64 1012.3
20260901011431 78 170 0.0 0.0 0.00 0.00 0.00 63 1012.3
20260901010928 79 172 0.0 0.0 0.00 0.00 0.00 62 1012.1
20260901010424 79 172 0.0 0.0 0.00 0.00 0.00 62 1012.2
20260901005923 79 172 0.0 0.0 0.00 0.00 0.00 61 1012.3
20260901005418 80 167 0.0 0.0 0.00 0.00 0.00 60 1012.3
20260901004919 80 171 0.0 0.0 0.00 0.00 0.00 59 1012.2
20260901004418 80 172 0.0 0.0 0.00 0.00 0.00 59 1012.3
20260901003913 81 175 0.0 0.0 0.00 0.00 0.00 59 1012.2
20260901003408 81 170 0.0 0.0 0.00 0.00 0.00 58 1012.2
20260901002906 82 168 0.0 0.0 0.00 0.00 0.00 57 1012.2
20260901002401 82 169 0.0 0.0 0.00 0.00 0.00 55 1012.2
20260901001900 83 169 0.0 0.0 0.00 0.00 0.00 55 1012.2
20260901001356 84 171 0.0 0.0 0.00 0.00 0.00 54 1012.1
20260901000852 84 173 0.0 0.0 0.00 0.00 0.00 53 1012.0
20260901000347 85 144 0.0 1.7 0.00 0.00 0.00 52 1012.1
20260831235844 84 189 0.0 0.0 0.00 0.00 0.00 51 1011.8
20260831235341 85 177 0.0 0.0 0.00 0.00 0.00 49 1012.2
20260831234836 85 177 0.0 0.0 0.00 0.00 0.00 48 1012.1
20260831234336 85 261 0.0 0.0 0.00 0.00 0.00 46 1012.0
20260831233831 85 172 0.0 0.0 0.00 0.00 0.00 46 1011.9
20260831233327 86 172 0.0 0.0 0.00 0.00 0.00 44 1012.0
20260831232822 87 91 0.9 1.7 0.00 0.00 0.00 43 1011.8
20260831232318 87 169 0.9 1.7 0.00 0.00 0.00 42 1011.9
20260831231814 87 61 0.9 1.7 0.00 0.00 0.00 41 1012.0
20260831231310 88 170 0.9 1.7 0.00 0.00 0.00 42 1011.9
20260831230805 88 167 0.0 0.0 0.00 0.00 0.00 43 1011.7
20260831230300 88 173 0.0 1.7 0.00 0.00 0.00 43 1011.8
20260831225759 88 342 2.6 4.3 0.00 0.00 0.00 43 1012.0
20260831225255 89 169 0.0 0.0 0.00 0.00 0.00 43 1011.8
20260831224750 89 171 0.0 0.0 0.00 0.00 0.00 43 1011.8
20260831224245 89 168 0.9 2.6 0.00 0.00 0.00 42 1011.9
20260831223740 89 161 1.7 1.7 0.00 0.00 0.00 43 1011.8
20260831223236 89 143 0.0 1.7 0.00 0.00 0.00 43 1012.0
20260831222732 89 265 1.7 2.6 0.00 0.00 0.00 44 1011.7
20260831222228 90 157 1.7 2.6 0.00 0.00 0.00 44 1011.7
20260831221723 90 168 0.0 1.7 0.00 0.00 0.00 45 1011.4
20260831221218 91 158 0.0 1.7 0.00 0.00 0.00 43 1011.4
20260831220713 91 174 0.0 0.0 0.00 0.00 0.00 40 1011.5
20260831220208 91 187 0.0 1.7 0.00 0.00 0.00 38 1011.4
20260831215703 92 177 0.0 0.0 0.00 0.00 0.00 39 1011.5
20260831215159 92 254 0.0 0.0 0.00 0.00 0.00 38 1011.3
20260831214656 92 136 1.7 1.7 0.00 0.00 0.00 35 1011.3
20260831214153 93 159 1.7 2.6 0.00 0.00 0.00 36 1011.3
20260831213648 94 297 2.6 4.3 0.00 0.00 0.00 36 1011.4
20260831213143 93 170 0.0 0.0 0.00 0.00 0.00 42 1011.3
20260831212640 94 8 1.7 2.6 0.00 0.00 0.00 39 1011.3
20260831212137 94 316 1.7 2.6 0.00 0.00 0.00 36 1011.5
20260831211635 94 194 1.7 2.6 0.00 0.00 0.00 37 1011.3
20260831211130 94 151 0.0 0.0 0.00 0.00 0.00 35 1011.2
20260831210625 94 175 1.7 1.7 0.00 0.00 0.00 37 1011.4
20260831210121 94 181 0.9 1.7 0.00 0.00 0.00 38 1011.2
20260831205620 94 80 1.7 2.6 0.00 0.00 0.00 37 1011.0
20260831205117 94 15 1.7 2.6 0.00 0.00 0.00 35 1011.3
20260831204616 94 175 1.7 1.7 0.00 0.00 0.00 38 1011.2
20260831204114 94 176 0.0 0.0 0.00 0.00 0.00 40 1011.2
20260831203614 95 177 0.0 1.7 0.00 0.00 0.00 37 1011.4
20260831203114 95 259 0.0 1.7 0.00 0.00 0.00 38 1011.1
20260831202613 94 191 0.0 1.7 0.00 0.00 0.00 40 1011.3
20260831202113 93 223 1.7 1.7 0.00 0.00 0.00 37 1011.3
20260831201612 93 83 1.7 2.6 0.00 0.00 0.00 39 1011.3
20260831201107 93 10 5.2 7.8 0.00 0.00 0.00 39 1011.4
20260831200604 93 178 1.7 1.7 0.00 0.00 0.00 41 1011.2
20260831200058 93 183 0.0 1.7 0.00 0.00 0.00 41 1011.2
20260831195554 94 68 3.5 6.1 0.00 0.00 0.00 40 1011.2
20260831195049 93 190 0.9 1.7 0.00 0.00 0.00 39 1011.3
20260831194543 93 167 0.9 1.7 0.00 0.00 0.00 41 1011.1
20260831194038 93 251 0.9 1.7 0.00 0.00 0.00 43 1011.0
20260831193533 93 181 0.0 0.0 0.00 0.00 0.00 43 1011.4
20260831193028 93 311 3.5 4.3 0.00 0.00 0.00 45 1011.0
20260831192523 93 175 0.9 1.7 0.00 0.00 0.00 45 1011.1
20260831192018 93 159 3.5 6.1 0.00 0.00 0.00 44 1011.1
20260831191514 92 178 0.0 0.0 0.00 0.00 0.00 47 1011.2
20260831191010 93 201 1.7 1.7 0.00 0.00 0.00 46 1011.3
20260831190506 94 317 1.7 2.6 0.00 0.00 0.00 43 1011.2
20260831190004 93 174 0.0 1.7 0.00 0.00 0.00 43 1011.0
20260831185500 93 259 0.0 1.7 0.00 0.00 0.00 44 1010.9
20260831185000 92 179 1.7 1.7 0.00 0.00 0.00 44 1011.0
20260831184454 91 184 0.9 1.7 0.00 0.00 0.00 44 1010.9
20260831183950 91 165 0.9 1.7 0.00 0.00 0.00 46 1011.1
20260831183449 91 204 2.6 2.6 0.00 0.00 0.00 48 1011.0
20260831182949 91 41 2.6 2.6 0.00 0.00 0.00 47 1011.1
20260831182444 91 143 0.0 0.0 0.00 0.00 0.00 50 1011.3
20260831181940 92 185 0.0 0.0 0.00 0.00 0.00 53 1011.0
20260831181435 91 168 0.9 1.7 0.00 0.00 0.00 54 1011.0
20260831180929 91 174 0.9 1.7 0.00 0.00 0.00 51 1011.1
20260831180424 90 171 0.0 0.0 0.00 0.00 0.00 56 1011.1
20260831175923 91 191 1.7 2.6 0.00 0.00 0.00 55 1011.2
20260831175420 90 174 2.6 2.6 0.00 0.00 0.00 55 1011.1
20260831174915 89 229 1.7 1.7 0.00 0.00 0.00 56 1011.2
20260831174410 89 227 1.7 4.3 0.00 0.00 0.00 60 1011.2
20260831173909 88 275 0.9 2.6 0.00 0.00 0.00 62 1011.3
20260831173409 89 31 2.6 2.6 0.00 0.00 0.00 59 1011.4
20260831172905 88 179 1.7 1.7 0.00 0.00 0.00 64 1011.2
20260831172400 87 106 1.7 2.6 0.00 0.00 0.00 67 1011.4
20260831171900 87 192 0.9 1.7 0.00 0.00 0.00 67 1011.3
20260831171356 86 186 2.6 4.3 0.00 0.00 0.00 69 1011.5
20260831170853 86 116 1.7 2.6 0.00 0.00 0.00 69 1011.4
20260831170348 86 157 1.7 1.7 0.00 0.00 0.00 69 1011.4
20260831165845 86 182 1.7 1.7 0.00 0.00 0.00 69 1011.5
20260831165341 87 174 2.6 4.3 0.00 0.00 0.00 68 1011.5
20260831164837 86 282 1.7 2.6 0.00 0.00 0.00 68 1011.4
20260831164333 86 137 0.9 1.7 0.00 0.00 0.00 70 1011.4
20260831163828 86 48 3.5 6.1 0.00 0.00 0.00 69 1011.3
20260831163324 86 106 1.7 1.7 0.00 0.00 0.00 69 1011.2
20260831162822 85 166 0.9 1.7 0.00 0.00 0.00 71 1011.0
20260831162318 85 155 0.0 0.0 0.00 0.00 0.00 71 1010.9
20260831161816 85 149 0.0 1.7 0.00 0.00 0.00 71 1011.0
20260831161313 85 342 3.5 6.1 0.00 0.00 0.00 71 1011.1